Wind_Speed
7 7 7 7 7 7 7 7 7 6 6 5 5 5 4 4 4 4 4 6 6 7 8 9 10 11 10 6 5 4 7 6 6 14 12 10 16 15 13 12 10 9 7 8 10 12 11 7 4 5 5 4 0 0 1 1 1 1 2 2 3 2 3 3 4 4 2 2 4 5 6 6 4 5 4 2 4 6 6 7 6 6 8 6 9 14 15 19
6 6 6 6 6 5 4 5 5 5 4 4 4 5 4 4 5 5 6 7 7 8 8 10 11 11 11 9 7 7 9 11 4 14 12 13 16 12 11 10 7 7 7 8 9 11 9 5 5 7 5 2 1 1 1 1 2 1 2 2 2 3 3 3 5 4 4 3 4 4 5 5 2 5 5 2 5 7 7 7 7 7 8 8 12 16 16 18
5 6 6 5 5 4 3 3 3 3 3 3 3 3 3 4 4 5 6 7 8 8 9 11 12 12 11 10 10 7 7 12 5 9 11 15 13 10 9 7 5 6 7 7 8 11 9 7 7 7 4 1 1 1 1 1 2 0 1 2 2 2 2 4 6 5 4 4 1 4 3 3 1 3 3 3 6 5 8 7 7 9 9 10 12 17 18 19
4 4 5 4 4 3 2 1 2 3 3 4 4 4 3 3 3 4 5 7 9 9 10 11 11 11 9 11 11 6 5 7 3 6 13 15 13 10 8 6 4 4 6 6 7 11 10 9 8 5 4 1 1 1 1 2 1 1 1 1 3 2 2 5 6 5 4 5 3 3 3 2 1 2 3 3 6 6 7 5 5 7 7 9 10 17 20 19
3 4 5 4 4 3 2 1 2 3 3 5 6 4 3 3 3 3 4 6 8 8 9 9 10 9 8 11 7 2 3 3 2 7 13 15 14 11 8 5 3 4 5 5 7 11 10 9 7 3 3 1 1 0 1 2 1 1 1 2 4 3 2 4 5 5 3 3 2 2 1 2 1 1 4 5 6 6 3 2 1 3 2 1 1 12 19 17
2 3 4 4 4 3 2 1 2 2 3 6 6 5 4 4 4 3 3 5 6 7 8 7 9 9 6 6 3 4 3 1 3 9 14 15 14 11 8 6 4 2 3 6 9 10 7 7 5 2 2 1 2 1 2 2 1 0 1 3 3 3 2 3 4 3 3 2 1 1 2 2 2 5 5 8 11 10 5 1 1 1 2 3 4 2 11 13
4 2 3 4 4 3 3 2 2 2 3 6 7 4 3 4 5 5 4 5 5 6 7 7 9 10 5 4 2 1 2 3 5 10 15 16 13 10 8 7 5 4 4 7 8 6 5 7 4 2 2 0 2 2 3 3 1 0 1 3 2 3 3 3 3 1 1 3 2 2 3 3 5 7 4 8 12 10 8 6 4 3 3 1 3 4 6 11
6 5 3 2 2 2 2 2 2 2 4 6 7 4 1 3 5 6 5 6 6 6 7 8 10 10 6 5 4 2 2 4 6 11 15 15 12 11 10 8 7 6 5 5 6 7 6 6 4 3 1 1 1 1 3 3 1 1 2 3 1 2 3 4 3 2 0 2 1 2 5 7 8 6 7 13 13 9 9 8 6 6 5 3 5 6 6 8
6 6 5 4 2 1 1 1 1 3 5 6 6 4 2 2 5 6 6 7 7 6 7 9 10 9 5 2 3 2 2 2 6 11 13 14 13 11 11 10 9 6 3 4 7 7 5 4 4 4 2 2 1 2 2 2 1 2 2 2 2 3 4 3 3 3 2 3 2 4 7 7 5 2 8 14 11 8 6 6 6 5 6 5 5 6 6 6
5 6 5 5 4 3 2 1 2 4 6 7 6 4 3 2 4 6 7 8 8 7 7 8 8 6 3 3 3 3 2 3 6 9 11 13 13 12 13 13 11 6 4 7 8 8 6 5 6 5 3 2 1 2 2 1 0 1 1 0 1 3 4 3 3 2 2 3 1 5 9 8 2 3 6 7 2 2 2 3 4 4 6 6 5 5 6 7
4 5 5 4 4 3 2 2 4 6 7 7 6 4 4 4 5 6 8 9 8 7 7 7 6 6 6 4 3 2 3 4 5 7 9 10 11 13 14 13 12 8 5 7 9 9 7 7 7 4 1 1 1 1 1 1 1 1 1 1 2 3 3 3 4 1 2 2 0 7 12 9 4 3 8 6 4 4 4 3 5 5 6 5 5 5 6 7
4 4 4 4 4 3 3 4 5 6 6 6 5 4 4 5 6 7 8 10 9 7 6 6 5 6 7 3 2 1 2 3 4 7 9 8 8 10 11 10 11 10 6 6 7 8 7 7 6 2 1 2 0 1 1 1 2 1 1 3 3 5 3 3 3 1 1 1 2 7 10 4 7 8 12 7 5 4 4 4 5 6 6 5 5 4 4 6
3 3 4 4 4 4 4 4 5 6 6 6 5 4 4 5 7 8 8 9 9 7 6 6 4 4 6 1 2 1 2 3 4 7 8 7 7 5 6 7 9 10 9 8 6 6 8 7 4 2 2 3 1 2 1 2 1 1 3 3 2 3 3 3 1 1 2 1 4 5 5 2 7 11 9 4 6 5 4 6 5 5 5 5 5 4 3 5
3 3 4 4 4 4 4 5 5 7 8 7 6 5 5 6 8 9 9 9 8 6 6 6 5 3 3 1 1 2 2 4 5 6 6 7 8 3 1 5 6 7 8 8 7 5 5 6 4 4 2 2 2 2 1 2 1 1 1 1 3 2 2 3 1 1 2 0 3 3 1 5 5 4 5 6 6 7 5 5 3 3 2 3 5 5 4 4
2 3 3 4 4 4 5 6 7 8 9 8 6 5 6 7 7 8 9 9 7 6 7 6 4 3 1 2 0 1 3 3 3 6 7 8 9 4 2 4 3 3 5 4 3 3 2 2 0 2 2 1 2 1 2 3 3 2 1 1 2 0 1 1 1 2 1 0 2 1 2 7 8 2 7 6 7 6 5 4 3 4 3 1 2 5 5 3
2 3 3 3 4 4 6 7 8 8 9 9 8 6 6 6 6 9 11 11 8 6 7 5 3 3 1 2 1 0 2 3 4 6 7 7 7 5 7 7 5 3 1 1 1 0 0 1 1 0 1 1 2 2 3 2 2 2 1 2 3 2 0 1 1 2 2 2 2 2 2 6 5 2 4 5 7 6 5 2 4 5 4 4 4 3 4 3
3 3 3 4 4 6 7 8 8 8 9 9 8 7 7 6 6 9 14 11 8 5 3 4 5 3 0 2 1 0 2 4 6 6 5 6 6 6 8 7 4 4 4 3 3 4 3 1 1 1 1 2 3 1 3 2 1 1 1 3 3 3 3 2 1 1 1 1 2 4 4 9 11 6 7 7 3 3 2 3 6 6 5 5 4 3 3 3
4 4 3 4 6 8 9 9 9 8 9 9 8 9 10 10 9 8 12 10 5 3 2 3 5 1 1 1 0 2 4 5 7 6 4 6 7 6 7 6 5 6 5 5 5 4 1 1 2 2 2 2 2 2 1 1 1 3 3 3 4 4 6 4 1 1 1 1 3 6 5 12 15 8 8 7 3 5 5 6 6 5 5 4 4 4 3 3
4 4 4 5 8 10 11 11 10 9 10 9 9 13 13 11 8 4 9 9 3 1 1 2 3 1 1 2 1 4 5 6 7 4 4 7 7 6 7 7 6 6 5 2 3 2 1 1 2 2 1 1 2 3 1 0 1 4 3 3 4 4 6 4 2 1 2 1 4 6 6 12 14 9 8 5 6 7 6 6 5 5 5 5 5 4 5 6
4 4 5 7 10 12 13 12 9 8 9 8 10 13 9 5 2 1 6 8 3 0 1 1 2 2 1 2 4 8 7 6 5 1 5 9 8 6 5 6 5 4 3 1 1 1 1 2 2 1 1 2 3 3 2 1 1 3 4 4 5 5 6 2 3 2 2 2 4 5 7 14 13 9 7 0 7 6 6 7 5 5 5 5 5 6 7 7
3 4 6 8 11 14 15 12 8 7 7 6 10 9 3 2 2 0 2 2 1 1 2 1 2 2 1 2 5 8 3 4 5 1 8 11 6 4 1 2 4 2 1 1 1 1 1 2 1 3 2 3 4 2 2 0 1 2 3 4 5 6 5 1 4 2 1 1 4 6 8 14 13 9 6 3 7 5 5 6 5 6 6 5 7 8 9 8
3 4 6 9 12 15 15 12 8 6 6 6 7 5 3 2 1 1 1 1 1 1 3 2 3 3 1 0 4 7 2 3 3 2 12 13 3 2 3 2 4 1 1 2 2 1 1 2 2 3 2 3 3 1 1 1 2 3 4 4 4 4 2 3 3 2 2 1 5 5 6 13 15 9 3 5 8 5 6 6 6 6 7 8 9 9 9 9
3 3 6 9 13 15 13 11 8 7 6 5 5 4 3 1 0 1 1 2 0 1 2 1 2 2 1 2 4 7 3 1 0 3 13 14 2 0 3 2 3 2 1 2 1 3 3 1 3 2 1 1 1 2 1 2 3 4 5 4 5 2 2 0 0 1 2 3 5 5 5 11 12 4 2 6 7 5 6 7 7 7 9 10 9 9 9 9
1 3 6 9 13 14 12 8 7 6 6 6 6 5 1 1 1 2 1 2 1 1 0 1 1 3 2 1 5 5 2 2 1 3 12 10 3 1 1 2 3 3 0 2 3 3 2 3 3 1 1 1 2 2 3 3 3 4 4 4 4 2 3 1 2 4 4 4 4 2 4 7 3 4 5 4 5 6 5 7 8 8 9 9 9 9 8 8
1 4 7 10 12 14 13 6 3 5 4 5 4 3 1 1 2 2 1 2 1 1 0 0 1 1 2 2 3 2 1 1 1 3 8 7 3 2 1 1 1 1 2 3 3 4 1 2 0 1 1 1 2 3 4 4 3 3 0 3 2 4 4 3 5 6 4 3 1 1 2 4 2 8 6 4 5 6 6 8 9 8 8 8 8 8 7 7
4 6 8 11 12 15 12 3 3 6 3 1 1 1 1 1 3 3 1 2 1 1 0 1 1 1 2 1 2 2 0 0 2 2 4 3 2 1 1 0 1 1 2 1 2 2 1 1 1 0 1 2 3 5 4 4 1 3 1 3 4 4 2 3 4 2 2 4 1 3 2 3 2 3 7 6 8 8 8 8 8 7 7 7 7 6 6 6
5 7 9 11 12 13 8 3 7 7 2 1 2 3 3 1 4 3 1 1 1 0 0 1 1 2 1 1 2 1 1 1 1 1 2 3 2 1 0 1 0 0 0 1 2 1 2 2 0 1 1 2 3 4 2 2 1 3 3 2 3 1 2 3 2 1 3 5 3 5 5 3 5 2 7 10 9 8 7 7 7 7 6 7 7 7 6 6
6 8 9 10 11 11 7 6 8 4 2 5 4 4 2 3 4 3 0 1 1 0 1 1 0 1 1 1 1 1 1 1 1 1 1 2 2 1 1 1 2 1 0 1 2 2 1 1 2 1 1 3 2 1 3 2 0 1 2 0 1 4 4 3 2 4 4 4 4 5 6 2 4 3 7 9 9 7 7 7 7 6 6 7 7 7 7 7
6 8 9 10 11 9 8 8 6 3 4 6 3 3 3 4 3 1 1 2 1 1 1 0 0 1 1 2 1 1 0 0 1 1 2 2 2 0 1 1 2 2 1 2 3 2 1 1 1 1 1 2 0 1 3 3 0 1 1 3 5 5 3 2 3 4 3 3 5 5 7 2 3 4 5 6 6 5 6 6 6 6 7 6 6 7 6 6
7 8 9 11 10 8 8 7 5 5 6 5 3 4 5 3 1 1 1 2 1 1 1 0 0 2 3 2 1 0 0 1 0 1 1 1 0 1 0 1 1 1 2 1 2 1 2 1 1 1 0 0 1 1 0 2 1 1 3 5 5 3 3 2 3 2 1 3 3 3 5 1 1 2 2 3 4 5 6 6 6 6 6 6 6 6 6 6
8 9 10 11 9 8 7 4 5 8 6 4 4 5 4 2 0 0 2 1 1 2 1 0 1 2 3 3 1 2 2 1 2 3 1 1 0 1 1 1 2 1 1 0 2 1 3 1 0 1 2 1 1 1 1 2 1 0 3 4 3 1 2 1 1 1 1 2 2 2 2 1 2 2 1 3 4 7 7 6 6 6 6 6 6 6 6 6
9 9 10 10 9 8 6 4 7 8 5 6 6 3 2 1 1 1 2 1 1 3 1 0 1 3 3 2 1 3 2 1 2 2 1 2 1 1 2 2 2 2 1 1 2 1 1 1 1 1 1 1 1 2 0 1 1 2 3 3 3 2 1 1 1 1 1 2 1 2 4 2 5 2 5 7 6 7 6 6 6 6 6 6 6 6 6 6
9 9 10 11 9 8 7 6 7 6 5 7 5 1 1 2 2 1 2 2 1 1 1 1 2 3 3 2 1 2 1 1 1 1 0 1 0 2 3 3 3 1 1 2 4 3 1 3 1 1 0 1 2 1 1 1 1 2 2 1 2 1 2 4 3 2 2 1 1 2 3 2 5 1 7 8 7 7 6 6 7 7 7 6 6 6 6 6
9 9 9 10 10 9 8 8 7 5 6 6 3 1 1 2 1 0 2 2 1 2 1 1 3 3 1 1 1 2 1 1 1 2 1 0 0 1 2 4 4 2 2 2 3 1 1 2 1 0 1 1 2 1 1 1 2 2 1 2 1 0 2 4 2 2 3 3 2 1 1 3 3 2 6 8 7 6 6 6 7 8 6 6 6 6 6 6
8 9 8 8 9 9 8 7 6 5 6 4 1 1 2 1 1 2 2 1 1 3 2 0 2 3 1 2 1 1 1 0 2 2 1 0 2 2 2 3 5 4 2 1 1 1 2 3 0 1 1 1 1 1 1 1 1 1 1 2 0 1 2 3 3 4 5 5 3 2 2 2 2 5 6 7 7 7 7 6 7 7 6 6 6 6 6 5
7 7 7 7 8 8 7 6 5 5 4 3 1 1 1 1 1 1 1 2 1 4 5 2 1 2 1 1 1 1 1 1 2 3 0 1 3 3 2 2 3 4 3 1 2 2 2 3 1 1 1 1 2 1 1 1 0 0 2 1 2 2 1 1 4 4 4 4 3 3 2 0 4 3 4 6 7 6 7 6 6 6 6 6 5 4 5 5
6 6 4 4 8 8 7 6 5 4 2 2 1 1 0 1 0 1 2 2 0 0 4 3 1 1 2 1 1 2 2 1 1 1 1 1 2 2 1 1 2 3 3 1 0 1 1 4 2 2 1 1 1 2 2 1 1 0 1 2 2 0 1 1 2 3 2 3 3 2 3 3 2 3 3 5 6 6 6 6 6 6 6 5 5 6 7 8
5 5 3 3 7 7 6 6 5 3 2 1 1 1 1 1 1 2 2 2 1 0 1 2 0 2 2 2 2 2 2 2 2 2 2 1 1 2 1 1 1 2 2 1 0 1 2 3 2 1 0 1 0 2 2 1 1 1 2 2 1 1 1 0 0 2 3 4 4 3 4 4 2 2 2 3 5 5 5 5 5 6 7 7 7 8 10 10
4 3 1 3 7 6 4 5 4 2 1 2 1 0 1 1 1 2 2 1 1 1 1 1 1 1 0 1 2 2 1 2 4 3 2 1 1 2 2 1 1 1 2 1 0 2 2 1 2 2 0 2 1 0 0 0 0 0 2 2 2 1 2 2 1 0 2 4 4 3 2 1 1 3 4 3 5 5 5 5 5 7 8 8 8 9 10 10
3 2 0 5 7 4 4 5 3 1 1 1 1 1 0 1 2 1 1 1 0 1 1 2 2 1 2 1 0 1 0 1 2 2 1 1 2 2 3 3 2 2 3 2 1 3 2 2 2 2 1 1 1 1 1 1 1 1 0 1 0 1 1 0 1 1 2 3 3 4 4 0 1 3 5 7 6 6 6 6 6 7 8 8 8 9 9 8
2 1 1 6 7 4 4 3 1 1 1 1 2 2 0 0 1 1 1 0 1 1 1 1 1 1 2 2 0 1 2 2 1 1 2 2 3 2 2 2 3 3 3 3 1 2 1 2 3 3 3 2 0 0 2 2 1 2 0 1 1 1 1 2 3 0 1 2 1 3 6 3 2 3 6 8 6 6 7 7 6 6 7 8 8 9 8 7
2 1 2 7 7 4 3 1 1 1 1 1 1 1 1 1 0 1 2 1 1 0 1 1 1 1 1 2 1 2 2 3 1 0 1 2 3 2 1 2 4 3 2 1 1 0 1 1 3 5 5 2 1 1 2 3 2 2 1 1 2 1 2 1 4 1 1 2 0 1 6 4 2 6 9 7 6 7 7 7 6 6 6 8 9 8 7 8
1 1 2 6 6 3 2 2 1 1 1 0 1 0 1 1 0 1 1 1 0 0 1 1 0 1 1 2 2 2 2 1 1 1 1 2 1 1 2 3 4 2 1 0 1 1 1 1 2 5 4 1 2 0 1 2 2 1 0 0 2 1 2 2 3 1 0 2 1 3 4 2 1 6 10 8 7 7 6 6 6 6 6 8 9 8 7 9
2 1 1 6 7 4 1 2 2 2 1 1 2 1 1 1 1 0 1 2 1 1 1 1 1 1 1 2 2 2 2 1 1 2 1 2 1 1 2 3 3 2 2 0 1 2 1 1 1 3 4 2 2 1 2 2 2 1 1 2 3 3 5 2 1 1 1 5 5 4 4 1 2 2 8 9 7 7 6 6 7 8 8 9 9 8 8 10
1 1 1 3 7 5 2 1 1 1 1 0 0 0 0 0 2 2 1 2 1 1 1 1 1 1 2 1 1 3 2 1 0 1 0 1 1 1 1 2 2 2 2 1 3 2 1 1 1 2 3 3 3 2 1 2 2 1 1 2 1 3 5 1 1 0 2 4 3 4 6 3 3 9 11 11 10 11 10 10 10 9 10 9 8 8 10 10
1 1 1 1 4 5 2 1 1 1 0 1 1 1 2 1 1 0 1 1 1 1 1 1 0 0 1 1 3 4 2 3 2 1 1 1 0 1 1 1 1 1 1 2 3 1 1 2 2 3 5 5 5 5 4 4 4 5 4 2 3 2 3 2 0 1 2 3 4 6 6 7 9 9 10 10 11 11 10 11 11 10 10 10 9 10 11 10
1 1 1 1 2 3 2 2 3 2 0 1 1 1 2 1 1 0 1 1 1 1 1 1 1 1 1 2 3 2 1 2 3 1 1 1 0 2 1 0 1 2 1 2 2 0 1 3 2 2 6 6 6 9 9 6 6 9 7 3 5 4 4 4 4 4 2 3 5 4 6 10 11 8 8 8 9 9 9 11 11 11 10 10 11 12 11 10
1 0 0 0 0 2 2 2 3 2 1 1 1 1 1 1 1 1 1 1 1 0 0 0 1 3 3 2 2 2 3 2 2 1 1 1 1 1 1 0 1 2 2 1 0 1 1 3 1 0 5 8 8 12 12 8 7 7 6 4 3 6 6 6 6 6 2 3 7 7 10 12 10 8 7 8 9 9 9 10 10 10 11 12 13 12 11 11
2 1 1 0 1 1 0 1 2 2 1 0 1 1 1 2 2 1 1 0 0 1 1 0 0 1 1 2 1 2 3 3 1 1 1 1 2 2 1 1 0 3 3 1 1 1 0 2 1 2 6 10 10 11 8 6 6 6 5 4 2 4 7 7 6 6 5 6 8 10 13 11 5 5 6 7 8 9 9 10 11 12 14 14 12 11 11 11
1 1 1 1 1 2 1 1 2 2 2 1 1 1 1 2 2 1 1 1 1 1 1 1 2 2 1 1 2 2 2 3 2 2 1 1 1 1 0 1 1 2 2 0 1 1 1 1 1 2 4 8 6 3 3 5 6 5 5 3 2 3 5 5 4 3 4 6 7 10 12 9 3 6 8 9 10 10 11 11 12 13 13 12 11 12 13 12
1 1 1 1 0 1 1 1 1 1 1 0 2 2 1 3 3 2 1 2 2 1 0 2 4 3 2 3 2 1 3 3 3 2 2 2 2 1 0 2 2 0 1 1 1 1 1 1 1 1 3 5 2 2 4 6 6 5 4 2 3 2 4 3 1 2 4 7 10 10 8 5 5 8 10 10 11 12 12 13 14 13 11 10 11 14 14 14
1 1 1 1 1 1 0 1 1 1 1 1 2 2 1 2 2 2 1 1 1 2 1 2 4 3 2 2 1 1 1 3 3 2 3 3 3 2 0 1 1 1 2 2 1 1 0 1 3 2 3 4 2 2 6 7 4 4 3 1 2 3 4 4 4 5 6 7 8 6 4 4 7 9 11 12 12 12 12 13 14 13 10 10 12 13 14 16
Wind_Direction
118 118 118 122 123 115 103 94 92 88 79 68 51 40 32 17 1 337 341 347 1 13 15 15 10 9 6 359 343 307 297 302 48 56 52 13 340 331 329 326 319 316 317 310 311 307 298 276 275 315 280 230 150 47 194 330 2 282 265 252 289 14 66 1 17 43 316 124 141 171 177 218 180 161 161 118 229 234 238 222 232 224 219 225 140 138 139 147
125 123 120 120 123 123 112 98 93 87 78 69 53 40 24 6 356 334 325 322 333 343 349 355 349 352 350 348 336 294 290 291 4 61 37 347 338 331 330 329 312 308 313 308 318 320 325 348 349 323 280 210 103 170 181 353 349 283 295 302 1 33 57 10 30 49 352 56 129 162 180 229 167 143 156 199 229 214 235 235 222 228 224 201 151 148 155 158
133 133 127 122 127 132 123 101 78 72 68 59 46 27 10 3 359 340 323 314 318 325 333 339 337 340 335 336 329 291 286 291 312 47 3 338 341 336 336 330 305 305 306 303 321 323 326 327 315 316 299 251 86 234 220 2 347 61 333 338 55 56 80 50 41 53 15 13 108 144 143 234 143 113 149 219 263 241 239 239 215 218 219 207 171 159 164 169
137 147 140 131 134 143 139 96 44 52 48 30 14 10 12 6 5 347 326 314 314 316 320 328 335 338 330 327 321 288 271 287 313 7 341 342 347 344 341 328 309 295 288 291 307 302 296 291 290 311 306 277 97 301 333 44 344 343 10 12 43 8 49 62 49 47 23 357 353 107 117 258 187 118 186 233 280 261 244 246 228 229 221 215 186 166 170 176
149 163 158 154 151 161 166 77 15 32 26 9 3 10 22 11 5 343 320 312 311 313 314 324 340 339 325 325 331 179 233 273 28 349 344 354 353 351 351 344 324 298 285 281 294 287 278 278 275 270 270 276 82 235 22 33 10 353 16 45 32 1 28 76 68 40 3 339 341 94 107 303 41 210 228 235 254 248 249 71 54 299 317 328 141 162 172 181
128 169 173 176 173 183 194 302 336 356 357 357 360 4 21 23 22 2 329 314 312 317 320 324 339 343 320 322 44 140 237 310 27 347 356 2 358 358 3 1 342 329 307 287 289 283 281 288 275 272 284 349 11 32 43 7 59 11 43 71 33 17 49 80 83 34 347 327 325 48 351 335 305 267 242 230 238 245 263 55 110 312 35 16 353 184 178 184
80 131 167 180 186 199 223 282 298 305 332 350 355 353 19 37 34 23 359 338 332 327 329 322 329 347 323 293 356 238 234 63 7 350 3 6 7 13 21 22 21 25 329 300 301 303 321 309 302 350 312 209 4 39 27 324 259 240 100 96 43 47 79 80 88 92 359 321 333 6 320 284 260 267 269 250 245 248 260 263 251 213 158 210 274 273 214 184
71 83 107 144 176 206 230 256 257 280 323 343 347 343 349 29 21 14 3 351 347 332 330 322 319 338 325 281 302 279 114 47 349 354 3 9 21 26 29 27 18 6 322 312 329 331 328 315 340 349 291 98 355 38 22 325 335 20 73 108 92 94 108 99 117 150 247 274 287 306 273 256 255 271 276 263 260 257 251 248 241 208 182 209 229 246 240 191
71 73 78 88 100 133 157 212 251 294 328 335 336 333 290 346 0 0 359 346 343 335 336 331 317 328 327 272 298 291 103 37 345 352 360 15 27 32 35 18 0 348 338 13 0 348 335 343 24 1 1 66 359 40 24 331 23 16 58 122 152 141 133 131 178 177 209 244 225 260 261 256 261 307 271 260 261 257 241 232 230 211 196 209 221 226 234 221
70 70 72 74 74 77 72 10 331 323 332 335 334 328 288 298 332 346 350 339 339 335 344 342 325 340 325 237 269 279 89 44 348 347 358 18 25 35 37 18 4 6 48 50 29 17 8 11 15 353 14 60 54 54 317 311 7 307 88 69 144 145 149 175 230 181 207 252 265 274 272 261 200 92 259 254 223 176 164 206 217 224 222 214 218 215 214 224
67 63 61 62 61 49 20 349 340 333 337 338 335 323 298 292 303 327 340 338 341 331 344 343 321 337 310 264 282 284 76 18 338 355 355 6 16 25 26 14 14 19 49 67 45 24 17 9 355 342 5 3 69 89 11 46 282 236 154 274 190 176 168 184 231 202 220 250 308 283 280 261 168 150 245 232 121 136 158 202 209 222 230 223 226 217 203 210
63 54 45 45 41 24 355 343 341 340 346 342 335 321 301 294 294 312 330 335 339 330 342 339 316 330 313 308 38 10 49 355 341 5 351 342 347 5 16 15 27 32 46 75 49 27 30 3 337 1 28 314 200 102 103 167 264 264 225 255 192 189 188 184 210 139 186 350 345 297 298 260 173 208 246 223 154 146 177 218 221 220 215 212 220 209 202 203
58 44 29 28 21 11 352 345 347 344 345 340 331 319 304 301 298 306 319 328 334 332 346 351 348 337 310 354 63 315 7 22 13 354 342 341 326 333 18 20 38 47 58 80 67 45 44 19 6 76 16 328 112 102 165 194 259 249 231 265 217 192 180 177 161 137 197 319 328 316 324 295 203 217 234 167 144 158 197 227 231 229 209 189 184 183 201 192
48 32 14 11 8 3 348 342 344 338 340 343 331 316 311 310 308 309 307 314 325 328 339 351 354 325 306 84 68 299 18 34 25 341 330 356 341 301 35 18 38 55 63 78 79 72 53 36 63 101 38 8 94 120 188 184 209 201 131 287 238 217 160 148 77 258 223 250 308 333 268 283 301 226 182 140 160 181 205 241 265 285 257 176 161 162 180 189
29 15 1 1 360 355 342 336 338 336 341 346 337 325 326 321 322 324 312 303 305 316 327 338 339 307 264 123 155 346 21 1 3 339 332 353 349 329 341 346 352 43 61 71 77 77 31 348 155 127 75 56 124 154 225 188 198 214 88 311 262 222 156 151 10 316 345 200 238 345 246 280 322 69 152 169 188 192 219 269 323 341 339 4 124 143 156 179
7 357 350 353 352 342 336 332 332 334 339 343 341 336 334 328 335 344 335 310 284 295 321 337 338 305 267 125 151 115 18 336 333 331 323 336 341 333 325 307 268 252 94 69 346 191 250 311 315 354 125 213 193 234 264 207 184 214 210 305 322 6 336 213 347 343 343 325 215 204 255 288 299 155 185 217 198 199 225 277 14 15 19 38 35 68 116 132
356 353 347 341 343 336 330 327 326 328 333 336 335 334 331 322 320 344 345 325 291 284 302 340 330 303 77 103 151 259 351 337 330 322 309 321 326 319 318 303 267 262 237 220 243 227 212 173 120 272 211 235 241 252 312 348 35 278 334 320 311 351 338 283 278 346 282 232 221 228 235 270 273 276 294 285 226 199 212 54 42 32 36 60 63 51 79 101
350 357 353 342 348 346 336 328 321 318 322 323 325 330 324 308 300 329 350 337 303 273 236 343 335 260 137 77 191 344 348 322 317 320 310 316 314 302 303 296 296 300 266 221 218 219 238 181 167 264 223 219 294 50 19 328 301 305 336 325 312 335 316 289 187 4 287 194 273 278 260 272 281 298 306 305 31 65 61 61 60 59 59 73 84 83 78 79
348 359 5 8 8 358 346 334 322 314 315 316 328 329 315 300 284 314 10 7 352 254 237 341 340 230 228 37 359 322 320 301 304 323 322 324 326 303 280 270 277 285 275 234 200 205 339 249 199 271 272 128 24 49 96 264 313 302 310 286 285 291 287 295 107 112 327 321 279 279 278 284 290 307 308 316 79 84 83 85 84 77 80 85 87 92 87 81
352 13 29 30 17 3 353 340 328 323 318 322 337 329 310 305 280 201 29 27 48 70 268 298 319 269 286 25 351 326 309 278 277 5 350 332 327 310 274 247 251 251 256 263 213 182 7 275 226 157 83 98 73 43 37 35 343 295 295 269 263 266 272 287 108 123 350 338 272 279 291 287 288 303 306 36 102 98 107 106 95 93 95 93 95 90 77 74
18 48 46 28 12 6 360 349 342 340 331 337 346 337 330 14 348 276 13 14 78 279 262 282 289 265 330 355 348 349 334 242 241 65 1 338 303 285 325 221 248 239 187 230 250 199 177 255 214 111 71 72 84 52 32 30 268 271 268 270 271 266 270 43 100 171 60 35 277 293 304 287 287 299 294 128 101 80 93 98 90 95 97 84 72 66 60 57
80 71 38 15 7 7 6 3 7 3 353 355 354 4 58 34 326 109 334 271 140 259 258 273 255 234 137 119 358 356 319 237 225 68 3 345 293 234 360 323 270 261 154 224 246 284 237 209 138 102 80 87 102 95 54 246 253 253 249 263 273 263 265 62 86 172 139 102 276 315 326 288 287 293 284 100 92 74 68 73 68 63 70 67 57 56 56 49
113 59 18 6 3 6 8 13 20 15 12 18 23 39 57 9 340 71 306 269 207 241 261 317 285 290 92 121 7 345 305 304 257 43 2 346 321 135 343 322 304 321 267 243 318 321 288 135 106 74 79 164 169 146 164 252 234 230 231 238 259 306 23 245 26 256 213 214 256 318 326 284 286 290 86 71 81 94 87 88 81 66 69 73 68 65 58 49
126 12 5 358 356 1 2 5 22 29 36 55 68 69 60 301 11 26 291 265 244 187 315 352 301 330 358 325 346 342 335 16 325 346 358 350 332 305 341 29 334 299 298 37 2 286 266 81 84 82 93 271 271 190 203 240 255 236 219 236 260 5 45 252 326 324 283 250 243 302 311 282 267 127 107 76 98 106 104 101 85 75 76 75 74 70 62 60
317 340 351 347 349 356 351 353 32 21 31 58 71 71 18 333 22 17 315 281 257 158 155 273 219 343 356 307 319 357 5 14 21 341 353 358 339 319 42 51 298 292 50 40 328 268 244 55 57 155 159 234 256 255 221 203 263 277 308 15 16 51 41 330 339 339 313 312 207 128 317 294 104 119 135 145 123 98 86 86 78 73 73 70 68 65 64 63
308 325 334 339 346 353 350 360 12 349 352 51 43 358 305 26 29 14 338 277 265 165 207 188 184 310 9 333 315 20 7 275 59 357 345 359 329 310 16 236 207 41 25 2 311 282 129 85 3 15 250 230 235 264 242 165 240 289 289 21 32 46 26 300 322 356 301 303 235 161 205 280 326 120 146 135 108 95 88 82 79 72 66 67 67 62 61 56
299 315 327 336 345 351 354 354 347 348 350 312 311 274 273 18 12 347 315 266 266 229 308 127 191 284 355 355 313 324 275 267 57 339 331 355 347 227 256 333 126 95 5 350 324 276 115 102 13 315 256 248 243 266 273 133 130 254 238 14 19 325 258 263 287 209 252 297 258 194 183 248 287 223 137 118 105 101 93 84 81 73 64 67 64 59 58 53
305 318 330 338 340 346 354 343 342 350 322 325 303 255 287 9 339 321 15 288 266 192 351 130 191 289 220 207 275 295 246 297 321 262 250 322 345 194 224 331 346 336 87 154 259 279 57 125 196 193 211 250 246 347 350 355 142 216 206 135 283 250 251 265 255 239 258 304 280 208 170 205 264 192 131 115 115 112 99 92 86 75 67 65 60 58 56 54
320 326 332 335 334 340 342 338 346 343 318 327 298 264 325 341 317 26 105 272 273 65 328 216 151 297 251 207 167 131 158 57 333 252 206 260 328 129 220 334 355 337 290 206 238 288 28 74 224 169 197 248 23 46 348 350 119 215 238 247 248 232 224 219 216 248 258 257 266 211 173 209 267 185 148 122 126 128 116 104 92 80 69 65 65 61 52 50
332 334 334 335 336 338 335 337 359 353 334 337 320 309 325 319 328 62 257 260 65 46 296 50 245 281 313 336 66 74 121 104 357 268 217 176 346 161 164 6 38 283 273 239 262 222 107 39 324 359 354 305 349 266 207 33 37 291 276 269 264 219 167 196 216 234 256 251 270 186 171 188 305 199 154 121 129 122 116 104 85 76 65 65 68 57 51 50
347 345 341 343 345 343 338 334 351 349 344 340 327 322 329 332 87 265 260 219 89 334 305 36 318 304 3 29 11 341 3 6 338 325 329 14 262 241 295 15 30 315 265 240 274 170 90 30 255 22 330 288 289 235 130 23 19 326 279 283 301 282 132 152 219 175 195 259 302 15 14 295 228 239 114 116 93 84 96 100 85 74 63 60 58 52 52 47
2 355 352 356 357 357 359 344 339 343 345 341 330 318 339 334 266 274 303 307 309 331 344 134 340 352 13 49 249 333 1 321 329 1 359 343 340 7 355 6 26 347 311 16 318 358 89 296 123 92 298 284 274 256 20 337 229 229 270 319 345 321 283 264 246 214 216 211 184 39 24 275 243 207 132 129 97 84 95 99 91 78 64 56 54 51 49 44
8 2 1 2 4 8 10 356 347 346 344 344 337 307 329 316 290 259 348 351 309 313 335 253 301 323 330 341 325 342 350 249 315 19 134 329 13 58 23 12 25 302 240 348 334 331 327 305 315 138 239 353 306 291 26 346 281 257 271 30 19 343 317 294 274 264 271 237 181 61 58 249 270 94 125 122 110 115 112 100 92 79 66 55 56 54 46 43
7 4 3 2 5 7 5 358 355 350 341 342 353 8 335 307 305 77 10 19 330 275 288 304 310 297 275 25 6 352 336 250 309 339 308 340 36 77 38 19 28 13 271 310 329 328 283 279 282 111 246 287 323 52 124 285 309 279 161 95 88 166 265 273 302 316 290 291 284 79 96 248 263 128 120 107 107 114 99 88 83 76 66 52 53 49 39 35
3 1 358 359 2 360 358 355 349 350 344 334 347 340 289 299 2 20 357 352 337 318 307 135 337 301 231 99 60 37 61 236 323 347 297 315 8 37 50 18 21 21 341 310 344 354 245 244 230 42 274 286 23 100 135 3 324 286 52 56 196 214 258 276 313 295 274 289 286 179 229 278 87 105 116 107 103 95 77 68 67 62 52 46 49 42 34 29
355 356 354 358 358 353 353 351 343 351 345 325 319 275 265 26 11 12 350 302 322 328 311 314 56 319 288 113 21 2 73 246 322 347 315 98 44 35 65 34 356 7 29 2 333 5 308 269 192 151 289 7 44 346 354 42 5 309 23 344 225 196 165 304 300 284 264 279 257 182 221 61 93 117 148 120 95 81 66 54 54 50 39 40 45 39 28 14
347 342 336 352 354 347 346 346 345 355 345 321 321 280 299 100 273 333 3 333 15 356 313 318 63 10 340 14 2 349 348 297 318 333 289 115 63 9 49 79 333 349 36 46 348 62 337 280 227 155 327 358 10 311 305 350 5 63 220 283 284 222 98 85 311 307 291 268 249 213 248 237 191 218 190 102 71 65 59 47 41 36 31 29 27 24 13 4
336 320 304 350 349 341 342 344 346 359 341 291 242 217 37 30 337 10 8 331 297 222 310 309 316 89 27 340 329 341 344 341 351 336 317 69 56 334 352 60 6 350 6 25 57 6 328 290 276 329 15 163 184 312 301 315 13 150 249 285 14 71 301 211 211 303 294 277 270 260 261 268 264 189 163 87 67 63 47 41 36 26 21 19 16 10 2 1
329 296 268 3 349 341 344 337 328 315 266 277 288 26 65 42 55 35 356 329 288 308 334 327 315 88 76 313 320 334 23 356 338 332 340 28 12 341 349 16 34 353 339 7 11 313 321 224 267 306 38 126 137 229 61 26 135 57 330 335 72 128 208 215 199 234 265 275 284 284 278 320 358 149 151 123 92 75 39 28 30 24 19 14 8 358 355 358
333 273 274 6 353 339 325 317 311 283 255 309 4 26 102 93 96 77 334 346 223 297 5 359 332 320 327 3 26 351 30 267 295 301 322 22 31 10 18 13 356 336 326 339 317 309 312 220 253 310 346 37 194 208 94 83 114 83 48 176 106 229 192 342 291 192 223 268 283 299 296 239 163 158 122 101 87 71 48 34 26 19 15 8 359 354 353 353
320 247 331 359 353 333 311 314 359 18 329 49 62 54 40 183 113 131 191 257 276 154 84 326 300 299 322 334 40 19 318 277 265 281 307 21 44 27 45 12 337 330 324 331 326 326 325 267 283 301 285 287 294 41 19 22 74 76 223 203 167 213 102 342 289 207 58 281 259 296 290 268 176 139 97 92 84 67 54 42 26 9 5 357 351 354 354 349
280 251 337 354 353 336 321 352 57 19 2 29 53 51 4 235 183 161 179 204 261 185 124 251 258 271 319 349 347 355 328 296 307 357 318 44 45 15 31 333 312 306 308 340 105 9 318 271 286 279 265 280 70 83 15 352 351 51 358 327 31 34 118 192 262 327 18 281 321 259 272 281 148 116 95 86 77 65 52 41 25 359 353 351 350 355 354 348
291 296 355 1 354 335 340 29 28 22 63 31 237 135 342 297 190 199 186 150 239 288 298 259 59 354 11 32 343 343 22 325 304 34 22 38 56 278 312 329 321 312 300 276 93 14 330 226 245 270 265 88 86 207 338 2 14 53 207 36 53 66 100 145 229 293 315 249 266 249 256 283 168 117 96 90 80 65 51 39 19 349 347 353 352 353 351 344
326 301 349 4 359 353 14 39 12 22 84 194 215 142 4 338 36 38 88 62 35 339 315 307 65 26 5 39 332 311 16 13 354 68 37 359 39 226 285 330 340 359 34 34 353 6 323 246 10 318 303 330 17 349 351 1 11 20 55 65 76 104 93 93 209 98 233 222 204 225 252 230 228 17 55 67 60 43 35 29 13 354 352 353 351 350 346 336
312 284 256 7 21 38 83 82 7 21 79 115 190 102 276 346 49 31 35 44 19 11 345 317 35 4 344 46 271 273 257 211 273 53 52 348 66 186 250 318 332 1 47 342 305 303 289 301 349 323 294 296 305 314 339 330 324 322 102 100 81 109 118 137 303 70 242 243 204 231 261 279 330 351 11 26 19 10 8 8 4 357 351 348 350 347 339 330
315 359 306 321 27 51 93 131 15 16 40 2 358 16 343 355 95 102 315 24 62 32 306 265 47 6 260 248 269 269 216 181 214 332 347 321 100 149 186 326 13 52 33 306 286 271 311 299 274 247 246 261 284 289 310 335 306 283 275 202 165 132 130 137 352 220 241 309 283 245 268 307 324 345 5 13 8 1 358 356 354 352 349 348 347 338 334 338
11 339 355 313 352 37 72 50 20 17 13 359 18 49 1 357 105 95 331 38 58 16 286 251 336 279 260 306 304 291 232 186 197 232 321 276 244 109 141 223 109 137 212 272 257 223 313 278 265 260 260 267 290 292 297 307 283 275 284 239 168 153 144 157 202 250 328 336 273 275 339 323 318 346 9 4 360 356 353 351 348 346 345 342 337 335 343 355
35 257 317 209 350 33 38 13 4 1 2 10 69 118 338 330 351 7 10 28 43 69 213 209 266 249 264 317 318 303 319 294 199 169 54 333 325 109 173 247 135 179 204 222 229 56 347 267 266 47 275 278 280 275 274 276 271 268 277 274 203 162 163 184 226 258 295 267 268 311 331 314 316 352 4 357 357 352 350 349 345 343 340 336 338 348 356 355
58 63 19 309 83 81 148 284 316 321 320 350 116 118 317 333 357 11 46 5 213 161 178 346 106 245 308 340 287 289 329 341 299 278 57 22 302 273 237 348 164 209 226 176 93 54 67 249 208 190 273 281 272 263 260 256 264 267 258 261 239 180 188 203 229 252 264 267 283 309 310 304 329 11 354 352 355 349 350 348 343 342 339 339 347 355 351 346
51 71 33 339 66 100 166 252 281 290 269 203 107 19 313 352 15 21 55 3 335 135 181 302 349 350 333 280 266 288 17 14 318 289 359 20 313 288 259 2 46 204 230 106 84 55 103 211 196 186 274 288 276 251 232 225 237 260 259 223 196 238 237 220 224 261 291 293 299 306 301 299 352 21 356 352 355 351 348 346 342 339 340 347 354 348 344 346
71 104 94 353 357 148 176 238 251 306 347 36 23 359 349 26 24 359 25 27 13 40 15 332 341 325 236 222 254 11 38 8 346 335 345 333 311 317 356 4 12 23 185 143 176 176 150 254 291 324 290 292 273 179 237 248 239 254 275 223 180 262 287 275 276 348 341 313 306 306 301 304 353 3 352 350 353 348 344 344 338 334 344 359 353 342 341 340
94 59 76 31 288 202 111 278 254 26 17 330 11 16 29 38 23 357 2 46 63 57 18 329 333 314 255 206 169 56 4 333 337 336 315 288 279 297 86 109 358 236 185 165 181 174 95 304 315 326 289 291 307 287 289 298 289 268 283 33 41 337 331 336 347 350 329 311 308 306 310 340 352 351 346 345 346 345 346 342 332 333 351 355 344 341 339 336
Height
822 822 822 822 823 823 823 823 823 823 823 823 823 823 822 822 822 822 821 821 821 820 819 819 818 818 817 817 816 816 815 814 815 813 813 816 816 814 813 811 809 809 808 807 805 804 802 800 801 800 800 800 801 803 802 802 802 806 810 813 814 812 815 817 813 816 816 818 823 822 822 823 825 828 828 829 830 830 829 828 827 827 827 828 830 831 833 834
823 823 823 823 823 824 824 824 824 824 824 824 823 823 823 822 822 822 822 821 820 820 819 819 818 818 817 817 816 815 814 814 814 813 815 816 815 813 812 811 809 809 808 807 806 804 803 801 801 800 799 801 802 803 804 804 804 808 810 811 817 817 817 815 813 816 816 817 821 821 821 822 823 825 827 829 828 827 829 827 825 826 826 827 829 831 832 834
823 823 823 824 824 824 824 824 824 824 824 824 823 823 823 822 822 822 822 821 821 820 819 819 818 817 817 816 815 815 815 814 814 815 816 816 814 812 811 810 809 809 808 807 806 805 804 803 802 801 800 802 803 803 805 806 806 808 811 816 819 816 815 815 815 818 819 818 818 820 822 822 821 822 826 828 825 824 825 822 822 824 823 823 825 828 830 831
824 824 824 824 825 825 825 825 825 825 824 824 824 823 823 822 822 822 822 821 821 820 820 819 818 817 817 815 815 815 815 816 817 817 817 815 813 812 810 810 809 808 808 807 807 806 805 803 801 801 803 805 804 804 807 809 809 809 812 819 818 813 816 819 819 821 821 820 819 819 823 823 820 821 824 825 826 824 818 816 816 817 818 818 820 823 827 828
825 825 825 825 825 825 826 826 825 825 825 824 824 823 823 822 822 822 822 821 821 820 820 819 818 817 816 815 815 814 816 822 821 818 817 815 813 811 810 809 808 808 807 807 807 805 804 802 801 802 804 806 806 808 810 809 810 813 815 817 816 814 819 821 822 824 823 821 820 821 824 824 821 821 822 824 826 821 813 813 813 813 814 814 817 820 824 826
825 825 826 826 826 826 826 826 826 826 826 825 824 824 823 822 822 821 821 821 820 820 819 819 818 817 816 815 815 814 818 825 822 817 817 814 812 811 809 809 808 808 807 807 806 804 803 801 801 804 805 807 809 810 813 809 809 816 818 817 817 817 820 822 823 826 825 823 822 823 824 823 823 823 820 821 820 813 810 812 813 813 815 815 816 819 821 823
826 826 826 826 826 827 827 827 827 826 826 825 825 824 823 823 822 822 821 821 820 820 819 818 817 817 816 815 816 815 817 821 819 817 817 813 812 810 809 809 808 808 808 807 806 804 803 803 803 805 807 810 811 812 814 811 809 815 818 818 819 819 821 823 825 827 826 825 824 824 825 825 825 823 818 816 812 810 810 810 812 813 814 816 817 818 819 820
827 827 827 827 827 827 827 827 827 827 826 826 825 825 824 823 823 822 821 821 820 819 819 818 817 816 816 815 816 816 817 820 819 818 816 814 812 810 810 809 808 809 808 807 807 804 805 805 805 806 809 812 811 813 815 814 813 815 818 819 820 821 822 824 826 826 826 825 825 826 827 825 822 821 818 813 808 808 809 809 810 812 813 816 816 817 817 818
828 828 828 828 828 828 828 828 827 827 827 826 825 825 824 824 823 823 822 821 820 820 819 817 817 816 815 815 816 818 819 820 819 818 816 815 813 811 810 810 809 808 808 808 807 806 806 807 807 807 810 812 811 814 817 818 820 819 818 819 819 821 823 825 825 826 827 824 824 826 826 822 819 820 816 808 806 806 806 807 808 809 812 814 815 816 816 817
829 828 828 828 828 828 828 828 828 827 827 826 825 825 824 824 823 823 822 821 820 820 819 818 817 815 816 815 816 820 821 819 819 819 817 816 814 812 811 810 809 808 808 809 808 808 808 808 808 806 808 811 812 817 819 820 822 820 819 819 819 821 822 825 824 823 825 824 824 825 823 819 818 822 817 805 803 804 805 807 807 808 810 811 813 814 815 816
829 829 829 829 828 828 828 828 827 827 827 826 825 825 824 824 823 823 822 821 821 820 819 818 817 816 816 815 817 821 821 819 820 819 818 817 815 814 812 811 810 809 809 809 810 810 809 809 807 807 811 813 814 818 819 821 821 818 820 821 821 821 822 823 824 823 824 824 824 824 820 816 819 822 814 804 804 805 806 808 807 808 809 810 812 812 814 815
830 830 829 829 829 828 828 828 828 827 827 826 825 825 824 824 823 823 822 821 820 819 819 818 817 817 815 815 819 821 820 820 820 819 818 817 816 815 814 813 812 810 809 809 810 810 809 809 808 810 814 814 817 820 821 821 820 818 821 824 822 821 823 822 822 822 824 824 823 822 816 811 817 815 804 801 804 805 807 807 807 807 808 809 811 812 813 814
830 830 830 829 829 829 828 828 827 827 826 826 825 825 824 824 823 823 822 821 821 820 819 818 817 816 816 819 821 821 821 820 820 819 819 817 816 816 815 814 813 811 810 810 811 810 810 809 808 811 813 814 819 822 821 819 820 821 822 823 823 823 826 822 821 823 824 825 822 822 819 809 808 806 799 800 803 805 807 806 805 805 805 808 809 811 812 813
831 830 830 830 829 829 828 828 827 827 826 826 825 824 824 823 823 822 822 821 820 820 819 818 817 816 817 821 822 821 821 820 820 820 819 818 816 816 815 814 813 812 811 810 811 810 810 810 809 812 814 816 819 821 821 821 822 822 823 824 822 823 827 824 823 824 825 826 822 825 826 811 801 799 799 800 801 804 806 804 803 803 803 805 808 810 812 813
831 830 830 830 829 829 828 828 827 827 826 825 825 824 824 823 823 822 821 821 820 820 819 818 817 816 818 822 822 821 822 821 821 820 819 818 816 816 815 814 814 812 811 811 811 811 810 810 811 814 817 818 820 822 822 822 822 820 822 824 817 818 826 827 825 824 825 825 822 826 828 814 802 799 799 799 800 802 803 803 802 802 803 804 806 808 811 812
831 831 830 830 829 829 828 828 827 827 826 825 824 824 823 823 822 822 821 820 819 819 818 817 817 816 820 823 822 821 821 821 820 820 819 818 817 816 815 814 813 812 811 811 811 811 810 811 813 815 818 820 820 821 819 819 821 818 819 822 816 816 822 826 828 827 826 826 823 825 827 819 807 800 798 797 798 800 802 801 801 803 804 805 807 808 810 812
831 831 831 830 830 829 828 828 827 826 826 825 824 824 823 822 822 821 821 819 819 818 818 818 816 817 821 822 821 821 821 821 821 820 819 818 817 816 815 813 811 811 811 811 811 811 810 812 816 817 817 818 814 816 820 823 824 821 820 822 818 818 821 823 827 829 827 827 826 824 826 820 806 799 798 794 794 797 799 801 803 805 806 806 808 809 810 811
832 831 831 830 830 829 829 828 827 827 826 825 824 823 822 822 822 821 821 818 818 818 818 818 817 820 826 823 821 822 821 821 820 819 818 817 816 815 814 812 811 811 810 811 812 811 810 812 816 817 816 816 814 817 826 830 830 828 827 828 825 824 824 819 823 830 828 827 826 823 823 814 803 799 797 793 792 796 799 802 805 806 807 808 809 810 811 811
832 832 831 831 830 830 829 828 827 827 826 825 824 823 821 820 820 822 821 819 820 822 823 823 822 826 828 823 821 822 821 821 820 818 818 816 815 814 813 812 812 812 812 813 812 811 813 814 817 819 819 820 821 822 825 827 829 829 829 832 832 831 825 818 825 832 828 827 826 822 820 812 803 801 797 794 794 797 801 803 805 807 808 809 809 810 811 812
832 832 832 831 831 830 829 828 827 827 826 825 824 822 821 822 823 823 823 822 825 828 828 827 826 826 825 823 822 821 820 820 819 818 818 816 815 814 812 811 812 812 814 816 815 814 817 819 819 822 823 823 825 825 824 825 827 828 829 831 830 830 824 819 827 833 828 828 824 818 817 811 804 802 797 794 795 798 802 804 806 807 808 809 810 811 812 815
832 833 832 832 831 830 829 828 827 827 826 826 825 824 825 828 829 828 828 828 828 829 828 827 826 825 825 824 823 822 821 820 818 818 817 816 815 815 812 811 813 815 816 817 817 817 819 821 822 825 826 824 826 827 827 827 828 829 831 831 829 827 823 820 828 833 829 829 824 817 819 813 804 802 797 793 797 801 803 805 807 807 808 810 811 814 816 818
833 833 832 832 831 830 829 828 827 827 827 827 826 826 827 829 830 830 830 830 828 827 827 826 826 825 825 824 823 823 823 821 819 818 818 816 814 816 815 813 814 815 816 816 818 819 819 821 826 827 827 827 828 829 829 829 830 831 830 831 831 823 820 824 830 831 829 830 825 819 823 815 804 801 796 794 800 805 806 807 809 809 810 813 815 818 819 820
833 833 833 832 832 831 830 829 828 828 827 827 827 828 829 830 829 829 830 830 828 828 827 826 826 825 824 824 824 823 822 822 822 820 819 818 815 817 818 816 816 815 815 816 818 821 820 823 828 828 828 829 829 829 831 831 830 831 830 829 828 820 821 827 830 829 827 827 824 822 828 819 804 801 798 798 803 806 809 810 811 812 813 816 818 819 821 822
834 834 833 833 832 831 830 830 829 829 829 828 828 829 830 830 829 829 829 828 827 827 827 827 826 825 825 825 824 823 823 824 825 823 822 821 819 818 819 820 820 818 818 818 819 821 822 828 832 830 831 830 829 830 830 832 829 825 825 826 824 823 826 829 828 828 825 823 823 826 830 815 800 802 803 802 806 807 810 812 812 814 815 817 819 820 823 824
835 834 834 833 833 831 831 830 830 830 830 829 830 830 830 830 829 829 829 828 829 828 828 828 827 826 826 825 825 824 825 825 826 825 824 824 823 820 821 822 822 821 821 821 821 821 824 832 834 831 832 830 831 831 827 830 829 823 826 830 829 828 832 831 830 832 828 825 825 829 830 812 795 800 806 804 807 810 812 813 815 817 817 819 820 822 824 825
835 835 834 834 833 832 831 830 831 831 830 830 830 830 830 829 829 828 829 834 834 829 829 829 827 827 827 826 825 824 826 827 827 826 825 826 825 823 823 822 822 824 824 822 822 825 830 836 835 832 832 830 832 832 824 825 829 828 830 835 833 832 834 834 834 836 833 826 825 827 830 821 804 800 803 805 809 813 815 816 818 819 820 821 823 824 826 827
835 835 834 834 833 832 831 831 832 831 830 831 830 831 830 829 829 828 832 842 839 829 829 829 827 828 827 826 825 825 828 828 827 827 826 826 824 824 824 822 823 825 825 824 823 827 833 836 836 834 833 832 832 830 825 825 829 831 834 837 835 833 835 835 835 839 835 827 826 823 825 830 819 804 800 805 812 816 817 819 820 821 822 823 825 826 827 828
835 835 834 834 833 833 833 832 832 831 831 831 830 831 830 829 829 828 837 849 839 828 828 828 827 827 826 826 825 826 827 826 827 828 826 826 825 824 825 823 824 825 824 827 827 828 831 833 834 834 833 832 831 831 829 827 828 832 837 838 835 834 835 835 838 839 834 831 830 822 822 830 820 804 802 806 813 818 819 821 822 822 824 825 826 828 828 829
836 835 835 835 833 833 833 832 832 831 832 831 830 830 829 829 828 829 844 850 835 827 829 827 828 828 826 826 826 826 827 827 828 827 825 826 825 825 826 825 825 826 825 827 828 828 831 835 834 832 832 833 833 834 832 830 831 834 838 837 834 836 836 838 840 837 833 835 831 819 819 825 814 803 805 807 812 819 821 821 822 823 825 826 827 828 829 830
836 835 835 834 833 833 832 832 832 832 831 830 830 830 828 829 831 839 851 846 832 829 829 827 830 830 827 827 827 826 827 828 828 826 825 826 826 825 828 828 827 828 828 828 828 829 835 838 837 835 835 836 836 835 834 834 834 835 836 833 831 834 838 840 837 833 835 833 825 816 815 821 818 808 809 812 814 817 819 821 823 825 826 827 828 829 830 831
836 835 835 834 834 834 832 832 832 831 832 830 830 829 829 831 836 846 849 837 830 832 830 831 834 832 832 834 833 829 829 830 829 828 827 826 827 826 827 828 827 827 828 828 828 832 836 836 836 838 840 838 836 835 837 837 836 836 835 832 829 829 833 837 834 834 837 829 822 820 816 820 821 812 814 820 817 817 820 823 825 827 828 828 829 830 831 832
836 836 835 834 834 834 833 833 832 832 831 830 830 828 832 840 843 842 838 831 833 836 835 838 837 835 837 839 838 835 834 833 831 832 832 829 828 829 831 832 831 830 828 826 826 828 833 837 837 839 840 839 836 834 836 837 836 836 834 831 831 827 826 831 830 828 827 824 823 824 821 821 815 808 815 821 819 820 822 823 826 828 829 829 830 831 832 834
837 836 836 835 834 834 834 833 832 832 831 830 830 829 836 848 848 841 835 833 838 840 840 842 838 837 840 838 838 840 838 835 832 833 834 832 831 833 837 837 836 836 830 828 827 824 829 836 838 838 839 841 839 832 831 832 833 833 830 831 834 833 833 834 826 818 817 821 823 824 825 821 809 808 817 819 820 823 822 823 827 827 829 831 831 832 833 834
837 837 836 835 835 834 833 833 833 832 832 831 831 834 844 850 846 843 841 838 841 841 841 844 840 838 840 838 841 843 839 835 834 834 834 833 830 831 836 838 839 838 834 833 831 827 830 830 832 837 837 839 840 835 835 835 834 832 829 832 834 834 838 836 828 825 826 823 822 826 826 815 809 816 820 819 820 822 822 824 827 828 830 831 832 833 834 835
838 837 837 836 835 835 834 834 833 833 832 832 834 841 849 848 841 843 846 845 844 842 842 845 843 839 837 839 843 845 842 837 835 834 832 832 832 834 839 842 843 841 839 836 831 829 827 823 832 843 840 840 841 839 841 838 834 832 829 832 834 833 834 832 829 830 831 828 826 827 821 809 812 821 819 820 822 822 824 826 827 831 832 832 833 835 835 836
838 837 837 836 836 835 835 834 833 833 832 834 840 845 847 847 845 847 851 850 850 848 845 843 843 839 834 836 841 843 845 842 836 834 831 832 837 840 842 847 850 847 845 842 834 834 832 826 835 844 841 843 844 841 843 838 833 832 831 833 835 836 835 834 832 827 828 834 826 816 813 813 820 825 821 821 823 824 827 829 830 832 833 833 835 836 836 835
838 837 837 837 836 835 835 834 834 834 833 836 844 847 845 848 853 855 855 854 854 854 849 843 841 840 837 837 838 841 845 842 837 836 831 831 839 844 843 848 854 852 851 850 839 838 841 834 834 839 838 843 847 844 843 843 840 834 834 837 837 837 835 835 841 836 833 836 820 805 810 812 813 820 823 823 826 828 830 831 833 834 834 835 835 834 835 834
838 838 837 837 836 836 835 835 834 834 835 840 844 845 846 851 856 859 860 859 857 854 851 846 843 841 842 842 840 841 843 840 836 835 833 830 839 847 846 848 855 854 854 856 846 839 842 838 834 836 838 842 847 845 839 843 846 839 838 840 836 837 837 835 842 843 841 839 824 809 808 807 807 817 825 826 829 832 833 833 835 835 834 834 834 834 834 834
838 838 838 837 837 836 835 835 835 834 838 843 842 843 850 855 860 865 865 862 860 855 851 850 847 844 843 845 845 843 844 842 840 839 836 833 839 850 850 848 853 855 854 855 851 842 842 841 837 836 840 842 843 839 832 836 844 843 843 841 837 839 840 836 838 840 842 842 832 820 813 812 816 818 821 826 830 834 835 835 835 835 835 835 835 835 835 835
839 839 839 837 837 836 836 835 835 836 840 845 844 846 853 858 862 867 867 864 861 857 854 853 851 848 846 846 847 846 845 845 843 841 837 836 840 850 857 857 855 856 856 854 852 846 842 841 837 835 839 838 834 835 832 830 836 839 839 839 839 838 837 838 837 834 837 838 835 833 823 816 817 816 818 826 831 833 835 836 836 837 837 837 837 837 836 837
840 841 840 838 837 837 836 836 839 842 843 845 848 852 856 859 862 865 866 866 863 860 859 858 855 853 851 849 848 849 847 844 843 841 838 840 843 848 860 869 864 861 858 852 851 850 846 843 840 837 836 829 829 839 841 836 833 833 833 833 834 834 836 844 843 836 839 840 840 844 837 820 812 813 820 827 831 833 836 838 839 839 839 839 838 838 837 837
841 842 840 838 837 837 836 840 845 847 845 848 854 858 860 861 862 862 864 865 863 861 861 860 857 855 853 852 850 850 849 846 842 841 840 842 848 854 864 873 871 866 861 852 851 856 853 850 848 841 833 831 837 845 845 842 838 835 836 834 832 833 836 844 848 847 849 847 843 849 846 825 809 811 823 830 832 835 838 839 841 841 840 839 838 838 838 838
841 842 839 838 838 837 838 843 847 847 850 858 862 862 863 862 860 860 862 862 861 860 860 858 857 857 856 856 855 852 851 849 843 842 843 844 854 867 871 872 870 866 862 855 853 858 855 849 848 840 829 833 844 845 842 843 840 835 836 837 837 840 842 845 848 852 856 852 846 850 846 825 808 809 823 833 835 838 839 840 842 841 839 839 838 838 838 838
842 841 840 839 838 837 841 847 848 847 852 859 861 860 863 864 862 861 860 860 861 861 860 858 858 859 858 858 858 855 853 852 846 846 848 846 856 872 874 873 871 866 864 862 859 861 854 842 843 842 834 833 837 836 837 840 837 833 835 842 846 846 849 853 851 855 859 848 842 849 842 820 808 809 819 831 837 838 839 839 840 840 839 838 839 839 839 839
843 842 841 840 839 839 844 849 850 849 851 854 855 857 859 862 865 866 863 863 864 863 862 861 861 862 860 859 860 856 854 854 851 850 852 850 859 873 874 872 872 869 870 871 869 867 857 844 845 849 847 842 836 833 836 837 836 835 836 844 850 848 850 853 852 858 859 844 838 844 836 819 813 816 823 834 838 838 839 839 839 840 840 840 840 841 840 838
844 845 844 842 840 842 848 852 850 850 851 852 853 855 855 857 864 868 866 864 865 865 864 862 862 862 860 859 858 854 851 853 853 853 854 853 858 869 873 871 872 872 873 873 871 867 859 852 850 848 847 846 840 837 837 837 840 840 836 841 850 854 855 856 856 857 855 851 847 839 833 831 829 828 836 842 843 843 843 842 842 842 841 842 843 842 841 839
846 848 850 848 846 846 849 853 852 852 853 853 853 855 855 855 859 864 866 865 865 866 864 862 862 861 859 859 857 853 850 851 853 854 857 857 858 866 873 873 872 872 873 871 869 866 861 856 854 851 848 846 844 841 839 840 842 840 837 841 849 857 859 858 859 853 849 856 851 833 834 843 837 836 846 849 846 847 846 845 845 844 844 845 844 842 841 841
848 851 854 854 853 852 851 854 856 855 854 855 856 856 855 855 856 857 862 866 867 867 864 861 861 860 858 858 858 855 851 849 851 854 857 859 859 861 867 871 872 872 871 869 867 867 864 859 859 858 853 849 848 845 841 841 840 836 837 840 845 855 861 859 857 853 851 857 850 837 841 846 840 845 852 850 849 850 848 847 847 846 846 845 843 844 844 843
850 852 855 856 855 856 857 858 859 857 855 854 855 857 856 855 855 856 860 864 864 866 864 860 858 859 857 857 859 857 854 852 853 856 859 861 861 859 859 864 869 870 868 866 867 870 866 860 859 861 857 850 846 841 838 839 839 836 838 840 841 849 855 855 856 853 851 852 848 845 847 845 846 853 854 850 851 850 849 849 848 848 847 846 846 847 846 844
851 851 854 855 855 858 860 860 859 856 854 854 854 856 857 855 856 859 861 862 861 862 864 861 859 859 858 858 858 858 860 861 859 861 864 863 862 861 859 860 864 867 866 866 868 870 867 859 855 857 856 846 838 836 837 838 839 840 839 839 842 846 847 849 852 851 851 853 851 851 851 847 848 853 853 851 851 850 851 852 851 850 849 849 849 848 845 844
851 851 852 853 855 857 858 858 857 854 853 855 856 857 858 858 859 861 862 865 864 862 864 863 861 860 859 858 858 861 867 869 865 866 868 866 865 864 862 863 865 865 865 866 868 869 867 861 854 855 856 846 836 836 837 835 837 841 843 843 845 847 848 848 849 850 855 858 856 854 855 853 853 854 854 854 854 854 855 854 852 851 851 851 851 848 846 844
851 851 851 852 853 856 856 855 854 854 856 859 860 860 860 860 862 861 861 865 868 867 867 867 864 863 859 856 860 867 872 872 870 869 869 868 867 865 865 866 866 865 864 865 868 869 868 866 860 857 857 847 834 834 838 837 837 842 848 853 852 852 853 853 853 855 857 857 858 859 859 858 859 858 857 857 857 858 858 857 855 853 853 853 852 850 848 845